sat.trackr.live / text

‹ back to catalog

KUIPER-00286

NORAD 68590 · 2026-072T

PAYLOAD ACTIVE UNKNOWN

§ Identity

Operator
Country
US
Launch date
2026-04-04
Launch site
AFETR
Launch vehicle
Mass (kg)
RCS (m²)

External: N2YO · Heavens-Above · Gunter

§ Orbital elements

Epoch: 2026-05-25T02:44:01.036896Z

Period
93.59 min
Inclination
51.8746°
Eccentricity
0.0004485
Mean motion
15.38634482 rev/d
Perigee alt
447.1 km
Apogee alt
453.2 km
Semi-major
6,828.3 km
B*
7.9650e-4
RAAN
288.2868°
Arg perigee
282.8180°
Mean anomaly
77.2306°
Rev number
783

§ Raw data

KUIPER-002861 68590U 26072T   26145.11390089  .00030611  00000+0  79650-3 0  99942 68590  51.8746 288.2868 0004485 282.8180  77.2306 15.38634482  7830

JSON: /api/v1/satellites/68590 · /tle

For live sub-satellite position, see the globe view (requires WebGL).

§ Visibility from observer

Set your observer location to see the next 7 days of passes ≥ 10°. The values pass through the URL so the page stays shareable.

No JS? Fill the form by hand. The geolocation button needs JavaScript.